Date String (YYYY-MM-DD hh:mm:ss) UTC,Instrument flags,Ambient pressure (hPa),Sample flow (lpm),Bypass flow (lpm),Sample temperature (°C),Ambient temperature (°C),ASC tube jacket temperature (°C),LED temperature (°C),Box temperature (°C),Sample RH (%),Span deviation,Mass concentration (μg/m³),Mass concentration (μg/m³),Mass concentration (μg/m³)
DateTimeUTC,F1_M11,P_M11,Q1_M11,Q2_M11,T1_M11,T2_M11,T3_M11,T4_M11,T5_M11,U1_M11,ZSPAN_M11,X0_M11,X2_M11,X1_M11
2022-06-03 23:00:00,,0822.7,5.00,0.00,29.6,28.7,00.0,38.4,31.6,26.5,-000.3,0017.94,0006.73,0005.56
2022-06-03 23:01:00,,0822.7,5.00,0.00,29.6,28.8,00.0,38.4,31.6,26.0,-000.3,0017.37,0006.71,0005.54
2022-06-03 23:02:00,,0822.7,5.01,0.00,29.7,28.9,00.0,38.4,31.6,25.2,-000.3,0016.58,0006.76,0005.58
2022-06-03 23:03:00,,0822.7,5.01,0.00,29.7,28.9,00.0,38.4,31.7,25.0,-000.3,0016.09,0006.85,0005.65
2022-06-03 23:04:00,,0822.7,4.99,0.00,29.7,29.0,00.0,38.5,31.7,25.0,-000.2,0016.80,0006.95,0005.71
2022-06-03 23:05:00,,0822.6,4.99,0.00,29.7,28.5,00.0,38.4,31.6,25.4,0000.0,0017.59,0007.01,0005.76
2022-06-03 23:06:00,,0822.6,5.01,0.00,29.7,27.6,00.0,38.3,31.3,25.6,-000.2,0017.26,0007.04,0005.81
2022-06-03 23:07:00,,0822.5,5.00,0.00,29.6,27.1,00.0,38.3,31.2,25.2,0000.0,0017.85,0007.13,0005.88
2022-06-03 23:08:00,,0822.5,5.00,0.00,29.5,27.0,00.0,38.3,31.1,25.3,-000.2,0018.54,0007.20,0005.96
2022-06-03 23:09:00,,0822.6,4.99,0.00,29.4,27.1,00.0,38.3,31.1,26.7,0000.1,0018.25,0007.23,0005.97
2022-06-03 23:10:00,,0822.6,5.00,0.00,29.4,27.3,00.0,38.3,31.1,27.6,0000.3,0018.20,0007.20,0005.98
2022-06-03 23:11:00,,0822.5,5.00,0.00,29.4,27.5,00.0,38.3,31.2,26.1,0000.2,0017.98,0007.21,0006.01
2022-06-03 23:12:00,,0822.5,5.01,0.00,29.4,27.7,00.0,38.3,31.2,25.9,0000.0,0018.34,0007.26,0006.05
2022-06-03 23:13:00,,0822.5,5.00,0.00,29.4,27.8,00.0,38.3,31.3,25.0,-000.5,0019.20,0007.32,0006.10
2022-06-03 23:14:00,,0822.5,4.99,0.00,29.4,28.0,00.0,38.3,31.3,24.9,-000.7,0018.95,0007.37,0006.16
2022-06-03 23:15:00,,0822.5,5.00,0.00,29.4,28.2,00.0,38.3,31.4,24.9,-001.0,0018.48,0007.42,0006.23
2022-06-03 23:16:00,,0822.5,5.00,0.00,29.4,28.3,00.0,38.3,31.4,25.3,-001.3,0018.75,0007.43,0006.27
2022-06-03 23:17:00,,0822.4,5.01,0.00,29.5,28.4,00.0,38.3,31.4,25.4,-001.4,0019.16,0007.50,0006.32
2022-06-03 23:18:00,,0822.3,4.98,0.00,29.5,28.5,00.0,38.3,31.5,24.9,-001.3,0019.29,0007.60,0006.38
2022-06-03 23:19:00,,0822.3,4.99,0.00,29.5,28.6,00.0,38.3,31.5,25.4,-001.1,0018.91,0007.68,0006.43
2022-06-03 23:20:00,,0822.3,5.00,0.00,29.6,28.7,00.0,38.3,31.6,24.3,-001.4,0018.47,0007.79,0006.58
2022-06-03 23:21:00,,0822.3,5.01,0.00,29.6,28.8,00.0,38.4,31.6,24.5,-001.0,0018.00,0008.01,0006.77
2022-06-03 23:22:00,,0822.3,5.01,0.00,29.7,28.9,00.0,38.4,31.7,24.7,-000.9,0018.10,0008.19,0006.96
2022-06-03 23:23:00,,0822.2,4.99,0.00,29.7,28.9,00.0,38.4,31.7,25.0,-000.8,0017.97,0008.29,0007.09
2022-06-03 23:24:00,,0822.3,5.00,0.00,29.7,28.7,00.0,38.4,31.7,25.4,-000.7,0017.56,0008.36,0007.18
2022-06-03 23:25:00,,0822.2,5.00,0.00,29.7,27.6,00.0,38.3,31.4,24.4,-001.1,0018.13,0008.50,0007.31
2022-06-03 23:26:00,,0822.3,4.99,0.00,29.6,27.0,00.0,38.3,31.2,25.1,-001.3,0019.10,0008.63,0007.43
2022-06-03 23:27:00,,0822.3,5.01,0.00,29.5,26.9,00.0,38.3,31.1,25.7,-001.0,0018.93,0008.73,0007.56
2022-06-03 23:28:00,,0822.3,4.99,0.00,29.4,27.0,00.0,38.3,31.1,26.0,-001.0,0019.19,0008.85,0007.70
2022-06-03 23:29:00,,0822.3,5.01,0.00,29.4,27.2,00.0,38.3,31.1,26.3,-001.2,0019.31,0008.93,0007.79
2022-06-03 23:30:00,,0822.3,5.00,0.00,29.3,27.4,00.0,38.2,31.1,25.6,-001.1,0019.11,0009.04,0007.89
2022-06-03 23:31:00,,0822.3,5.00,0.00,29.3,27.6,00.0,38.2,31.2,25.7,-000.9,0018.79,0009.00,0007.93
2022-06-03 23:32:00,,0822.4,5.02,0.00,29.4,27.8,00.0,38.2,31.2,25.1,-001.2,0019.43,0009.00,0007.93
2022-06-03 23:33:00,,0822.4,4.99,0.00,29.4,28.0,00.0,38.2,31.3,24.4,-001.2,0020.43,0009.08,0007.99
2022-06-03 23:34:00,,0822.5,4.99,0.00,29.4,28.1,00.0,38.2,31.3,24.3,-001.3,0020.43,0009.20,0008.07
2022-06-03 23:35:00,,0822.4,5.00,0.00,29.4,28.3,00.0,38.3,31.4,24.2,-001.3,0020.21,0009.30,0008.17
2022-06-03 23:36:00,,0822.5,5.01,0.00,29.5,28.4,00.0,38.3,31.4,24.6,-001.0,0020.45,0009.32,0008.20
2022-06-03 23:37:00,,0822.5,5.00,0.00,29.5,28.5,00.0,38.3,31.5,25.3,-000.7,0020.34,0009.33,0008.17
2022-06-03 23:38:00,,0822.5,5.00,0.00,29.5,28.6,00.0,38.3,31.5,26.0,-000.8,0019.67,0009.30,0008.12
2022-06-03 23:39:00,,0822.6,4.99,0.00,29.6,28.7,00.0,38.3,31.6,25.6,-000.8,0019.52,0009.27,0008.05
2022-06-03 23:40:00,,0822.6,5.00,0.00,29.6,28.8,00.0,38.4,31.6,25.4,-001.0,0019.35,0009.20,0008.00
2022-06-03 23:41:00,,0822.7,5.00,0.00,29.6,28.8,00.0,38.4,31.6,25.4,-000.9,0019.67,0009.09,0007.93
2022-06-03 23:42:00,,0822.7,4.99,0.00,29.7,28.9,00.0,38.4,31.7,25.7,-001.0,0019.93,0009.04,0007.83
2022-06-03 23:43:00,,0822.8,5.00,0.00,29.7,28.7,00.0,38.4,31.7,26.7,-000.8,0019.92,0008.91,0007.72
2022-06-03 23:44:00,,0823.0,5.01,0.00,29.7,27.9,00.0,38.3,31.5,27.2,-000.9,0019.71,0008.67,0007.49
2022-06-03 23:45:00,,0822.9,5.00,0.00,29.6,27.6,00.0,38.3,31.4,26.9,-000.7,0019.46,0008.36,0007.25
2022-06-03 23:46:00,,0822.9,5.02,0.00,29.6,27.6,00.0,38.3,31.3,27.5,-000.5,0021.04,0008.12,0007.01
2022-06-03 23:47:00,,0823.1,4.98,0.00,29.5,27.6,00.0,38.3,31.3,27.2,-000.2,0020.44,0007.86,0006.76
2022-06-03 23:48:00,,0823.0,5.00,0.00,29.5,27.8,00.0,38.3,31.3,27.0,-000.1,0019.99,0007.61,0006.54
2022-06-03 23:49:00,,0822.9,5.00,0.00,29.5,27.9,00.0,38.3,31.4,26.9,0000.3,0019.70,0007.44,0006.37
2022-06-03 23:50:00,,0822.9,5.02,0.00,29.5,28.0,00.0,38.3,31.4,26.8,0000.4,0019.18,0007.28,0006.23
2022-06-03 23:51:00,,0823.0,5.00,0.00,29.5,28.2,00.0,38.3,31.4,26.7,0000.7,0018.77,0007.10,0006.08
2022-06-03 23:52:00,,0823.0,5.00,0.00,29.5,28.3,00.0,38.4,31.5,26.6,0000.5,0017.87,0006.94,0005.93
2022-06-03 23:53:00,,0823.0,5.00,0.00,29.6,28.4,00.0,38.4,31.5,26.3,0000.5,0017.21,0006.79,0005.82
2022-06-03 23:54:00,,0823.1,5.01,0.00,29.6,28.5,00.0,38.4,31.5,26.1,0000.5,0016.93,0006.72,0005.72
2022-06-03 23:55:00,,0823.0,5.00,0.00,29.6,28.6,00.0,38.4,31.6,26.5,0000.4,0016.53,0006.74,0005.71
2022-06-03 23:56:00,,0823.1,5.00,0.00,29.6,28.7,00.0,38.4,31.6,26.3,0000.1,0016.34,0006.80,0005.69
2022-06-03 23:57:00,,0823.1,5.00,0.00,29.7,28.8,00.0,38.4,31.7,26.0,0000.0,0015.17,0006.80,0005.69
2022-06-03 23:58:00,,0823.1,4.99,0.00,29.7,28.5,00.0,38.4,31.6,23.3,-000.1,0014.77,0006.73,0005.61
2022-06-03 23:59:00,,0823.1,5.01,0.00,29.6,27.8,00.0,38.4,31.4,22.8,-000.4,0014.27,0006.53,0005.46
